Location: Ergnies
(50.0854°N, 2.0375°E)
Time: 04:38:12
(UTC+00:00)

Cosmos 1953 - Visible Passes

Search period start: 21 April 2026 00:00
Search period end: 01 May 2026 00:00
Orbit: 471 x 485 km, 82.5° (Epoch: 20 April)

Date Brightness Start Highest point End Pass type
(mag) Time Alt. Az. Time Alt. Az. Time Alt. Az.
22 Apr 4.5 04:05:58 10° N 04:09:13 29° ENE 04:12:27 10° SE visible
23 Apr 5.2 03:39:40 10° NNE 03:42:23 19° ENE 03:45:05 10° ESE visible
24 Apr 5.5 03:13:45 10° NE 03:15:29 13° ENE 03:17:13 10° E visible
26 Apr 3.3 03:53:50 10° N 03:57:25 47° ENE 04:00:57 10° SSE visible
27 Apr 4.3 03:27:19 10° N 03:30:35 30° ENE 03:33:51 10° SE visible
28 Apr 5.0 03:00:57 10° NNE 03:03:42 20° ENE 03:06:27 10° ESE visible
29 Apr 5.3 02:34:57 10° NE 02:36:46 13° ENE 02:38:34 10° E visible
30 Apr 2.2 03:41:41 10° N 03:45:23 82° E 03:49:01 10° SSE visible
